Location: Bothwell
(42.3833°S, 147.0000°E)
Time: 07:51:05
(UTC+10:00)

Tiangong - Visible Passes

Search period start: 27 May 2024 00:00
Search period end: 06 June 2024 00:00
Orbit: 370 x 373 km, 41.5° (Epoch: 26 May)

Date Brightness Start Highest point End Pass type
(mag) Time Alt. Az. Time Alt. Az. Time Alt. Az.
27 May -1.1 17:27:06 10° W 17:30:08 44° NNW 17:33:09 10° ENE visible
27 May 0.8 19:04:47 10° WNW 19:06:11 12° NNW 19:06:44 12° NNW visible
28 May 0.3 18:00:02 10° WNW 18:02:30 21° NNW 18:04:56 10° NNE visible
30 May 0.9 17:28:53 10° WNW 17:30:45 15° NNW 17:32:37 10° N visible
